This is the latest recevied weather packets stored in our database for station/object F5MAP-5. If no packets are shown the sender has not sent any weather packets the latest 10 day(s).
| Time | Temp. | Humidity | Pressure | Rain* | Wind** | Luminosity | Snow |
|---|---|---|---|---|---|---|---|
| 1787758933 | 27.78° C | 59% | 1013.1 hPa | 0 mm | - | 98 W/m² | - |
| 1787758333 | 27.78° C | 59% | 1013.2 hPa | 0 mm | - | 114 W/m² | - |
| 1787757733 | 27.78° C | 60% | 1013.4 hPa | 0 mm | - | 120 W/m² | - |
| 1787757133 | 27.78° C | 60% | 1013.6 hPa | 0 mm | - | 134 W/m² | - |
| 1787756533 | 27.78° C | 58% | 1013.6 hPa | 0 mm | - | 176 W/m² | - |
| 1787755933 | 27.78° C | 59% | 1013.7 hPa | 0 mm | - | 183 W/m² | - |
| 1787755333 | 27.78° C | 59% | 1013.8 hPa | 0 mm | - | 193 W/m² | - |
| 1787754733 | 27.78° C | 59% | 1013.8 hPa | 0 mm | - | 192 W/m² | - |
| 1787754133 | 27.78° C | 60% | 1013.8 hPa | 0 mm | - | 195 W/m² | - |
| 1787753534 | 27.78° C | 60% | 1013.6 hPa | 0 mm | - | 206 W/m² | - |
| 1787752933 | 27.78° C | 61% | 1013.9 hPa | 0 mm | - | 195 W/m² | - |
| 1787752333 | 27.78° C | 61% | 1014.1 hPa | 0 mm | - | 162 W/m² | - |
| 1787751733 | 27.78° C | 62% | 1014.1 hPa | 0 mm | - | 137 W/m² | - |
| 1787751133 | 27.78° C | 62% | 1014.4 hPa | 0 mm | - | 155 W/m² | - |
| 1787750533 | 27.78° C | 62% | 1014.5 hPa | 0 mm | - | 584 W/m² | - |
| 1787749933 | 27.78° C | 63% | 1014.6 hPa | 0 mm | - | 613 W/m² | - |
| 1787749333 | 27.78° C | 64% | 1014.7 hPa | 0 mm | - | 715 W/m² | - |
| 1787748732 | 27.78° C | 64% | 1014.7 hPa | 0 mm | - | 573 W/m² | - |
| 1787748132 | 27.78° C | 64% | 1014.8 hPa | 0 mm | - | 612 W/m² | - |
| 1787747532 | 27.22° C | 66% | 1014.9 hPa | 0 mm | - | 513 W/m² | - |
| 1787746932 | 27.22° C | 67% | 1015.1 hPa | 0 mm | - | 670 W/m² | - |
| 1787746332 | 26.67° C | 67% | 1015.2 hPa | 0 mm | - | 657 W/m² | - |
| 1787745732 | 26.67° C | 67% | 1015.4 hPa | 0 mm | - | 624 W/m² | - |
| 1787745132 | 26.67° C | 67% | 1015.5 hPa | 0 mm | - | 587 W/m² | - |
| 1787744532 | 26.67° C | 68% | 1015.5 hPa | 0 mm | - | 550 W/m² | - |
* Rain latest hour (hover to see other rain measurements)
** Current wind speed in m/s (hover to see current wind gust speed)